Flag for Germany Weather past 2 weeks in Haltern am See, North Rhine-Westphalia, Germany

Now
30 °F

Clear.


Feels Like: 24 °F
Forecast: 40 / 62 °F
Wind: 6 mph from Southeast

Location: Dortmund / Wickede


UV Index: 3 (Moderate)

Visibility: 10 mi


Pressure: 30.42 "Hg

Humidity: 93%

Dew point: 28 °F

Location of Haltern am SeeLocation

Historic Weather in Haltern am See

°F

Haltern am See temperature yesterday

Maximum temperature yesterday: 48 °F (at 3:20 PM)
Minimum temperature yesterday: 37 °F (at 5:50 AM)
Average temperature yesterday: 44 °F

Past Weeks' High & Low Weather Summary

 TemperatureHumidityPressure
High72 °F (Apr 2, 2:20 PM)94% (Apr 5, 5:20 AM)30.39 "Hg (Apr 5, 5:20 AM)
Low30 °F (Apr 16, 5:20 AM)29% (Apr 2, 2:20 PM)29.62 "Hg (Apr 3, 5:20 AM)
Average54 °F66%29.98 "Hg
* Reported Apr 1 5:20 AM — Apr 16 5:50 AM, Haltern am See, Weather by CustomWeather, © 2014

Note: Actual official high and low records may vary slightly from our data, if they occured in-between our weather recording intervals... More about our weather records

Advertising

Historic Weather Conditions — Data for Previous 24 hours

 ConditionsComfort  
Time TempWeatherWind HumidityBarometerVisibility
5:50 AM
Apr 16
30 °FClear.6 mph86%30.39 "Hg10 mi
5:20 AM30 °FClear.5 mph86%30.39 "Hg10 mi
9:50 PM
Apr 15
43 °FPassing clouds.8 mph61%30.33 "HgN/A
9:20 PM43 °FPartly sunny.6 mph66%30.33 "HgN/A
8:50 PM45 °FPartly sunny.12 mph57%30.33 "HgN/A
8:20 PM45 °FPassing clouds.8 mph61%30.30 "HgN/A
7:50 PM45 °FSunny.12 mph61%30.30 "Hg10 mi
7:20 PM46 °FScattered clouds.10 mph57%30.30 "HgN/A
6:50 PM46 °FSunny.10 mph57%30.30 "Hg10 mi
6:20 PM46 °FSunny.13 mph57%30.30 "Hg10 mi
5:50 PM46 °FSunny.12 mph57%30.27 "Hg10 mi
5:20 PM48 °FSunny.13 mph50%30.30 "Hg10 mi
4:50 PM48 °FSunny.13 mph54%30.30 "Hg10 mi
4:20 PM46 °FSunny.12 mph62%30.30 "Hg10 mi
3:50 PM46 °FSunny.12 mph62%30.30 "Hg10 mi
3:20 PM48 °FSunny.12 mph58%30.30 "Hg10 mi
2:50 PM46 °FSunny.12 mph57%30.30 "Hg10 mi
2:20 PM46 °FScattered clouds.12 mph57%30.30 "HgN/A
1:50 PM45 °FScattered clouds.15 mph66%30.30 "HgN/A
1:20 PM45 °FPartly sunny.13 mph61%30.30 "HgN/A
12:50 PM46 °FScattered clouds.10 mph62%30.30 "HgN/A
12:20 PM46 °FScattered clouds.10 mph62%30.30 "HgN/A
11:50 AM45 °FPartly sunny.12 mph66%30.30 "HgN/A
11:20 AM43 °FScattered clouds.12 mph71%30.30 "HgN/A
10:50 AM46 °FScattered clouds.14 mph66%30.27 "HgN/A
10:20 AM43 °FScattered clouds.13 mph71%30.27 "HgN/A
9:50 AM43 °FPassing clouds.13 mph71%30.27 "HgN/A
9:20 AM43 °FPassing clouds.13 mph71%30.27 "HgN/A
8:50 AM41 °FPassing clouds.10 mph76%30.27 "HgN/A
8:20 AM39 °FSunny.8 mph81%30.24 "Hg10 mi
7:50 AM39 °FPartly sunny.8 mph81%30.24 "HgN/A
Weather by CustomWeather, © 2014

See weather overview